Weather Roundup
Issued by NWS Chicago, IL

Home | Current Version | Previous Version | Text Only | Print | Product List | Glossary Off
Versions: 1 2 3 4 5 6 7 8 9 10 11 12 13 14 15 16 17 18 19 20 21 22 23 24 25 26 27 28 29 30 31 32 33 34 35 36 37 38 39 40 41 42 43 44 45 46 47 48 49 50

000
NZUS59 KLOT 301112
HRRLOT

CHICAGO AREA WEATHER ROUNDUP
NATIONAL WEATHER SERVICE CHICAGO/ROMEOVILLE IL
600 AM CDT MON MAR 30 2015

NOTE: "FAIR" INDICATES FEW OR NO CLOUDS BELOW 12,000 FEET WITH NO
SIGNIFICANT WEATHER AND/OR OBSTRUCTIONS TO VISIBILITY.

* THESE STATIONS ARE NOT UNDER NWS QUALITY CONTROL. THEY ALSO MAY NOT
  REPORT WEATHER SUCH AS PRECIPITATION OR FOG.

ILZ005-006-012>014-019>023-301200-
NORTHEAST ILLINOIS

CITY           SKY/WX    TMP DP  RH WIND       PRES   REMARKS
OHARE          CLEAR     35  28  75 W9        29.99R WCI  28
MIDWAY         CLEAR     37  29  72 W7        30.01R
AURORA         CLEAR     31  26  82 W3        30.02R
LANSING*       CLEAR     33  26  77 W6        30.01R WCI  27
JOLIET*        CLEAR     35  30  81 W5        30.04R WCI  31
WAUKEGAN       CLEAR     34  28  79 VRB3      29.98R
DUPAGE AIRPORT CLEAR     36  28  73 W10       30.00R
WHEELING       CLEAR     36  28  73 W6        30.01R
KANKAKEE*      CLEAR     32  29  90 W8        30.04R WCI  25
MORRIS*        CLEAR     30  27  88 W8        30.03R WCI  23
LEWIS AIRPORT* CLEAR     32  27  81 W6        30.02R WCI  26
NORTHERLY IS     N/A     40  29  65 W9          N/A
$$

WIZ051-052-058>065-066-070>072-301200-
SOUTHEAST WISCONSIN

CITY           SKY/WX    TMP DP  RH WIND       PRES   REMARKS
MILWAUKEE      CLEAR     36  28  73 W7        29.96R
KENOSHA*       CLEAR     33  28  81 W8        29.97R WCI  26
RACINE*        CLEAR     35  27  72 W8        29.98R WCI  29
BURLINGTON     CLEAR     32  26  81 W5        29.98R WCI  27
WAUKESHA       CLEAR     34  27  75 W7        29.96R WCI  28
WEST BEND      CLEAR     34  27  75 W7        29.92R WCI  28
$$

INZ001>003-010>013-019-020-301200-
NORTHWEST INDIANA

CITY           SKY/WX    TMP DP  RH WIND       PRES   REMARKS
GARY*          CLEAR     36  27  69 W8        30.01R
MICHIGAN CITY* NOT AVBL
RENSSELAER*    NOT AVBL
VALPARAISO     CLEAR     32  28  85 W9        30.00R WCI  24
$$

LMZ740>746-301200-
SOUTHERN LAKE MICHIGAN

STATION/POSITION TIME  SKY/WX   TEMP WIND        PRES    VSBY
                                AIR  DIR/SP/G
                 (UTC)          (F)  (DEG/KT/KT) (MB)    (MI)
HARRISON CRIB    1000            40  270/ 13/ 15   N/A
BURNHAM HARBOR   1100            39  260/ 10/ 12   N/A
CALUMET HARBOR   1000            38  250/  5/  7 1014.3R
BURNS HARBOR     1000            39  250/ 11/ 12 1015.9R
MICHIGAN CITY    1000            37  220/ 13/ 14   N/A
$$

ABBREVIATIONS USED IN REMARKS
   TC - TEMPERATURE IN CELSIUS
  WCI - WIND CHILL INDEX
   HX - HEAT INDEX
  VSB - VISIBILITY
$$



USA.gov is the U.S. government's official web portal to all federal, state and local government web resources and services.